Total_Precipitation_Accumulation
1.03 1.03 1.05 1.04 1.06 1.07 0.99 0.96 0.99 1.06 1.11 1.14 1.12 1.09 1.04 1.00 1.01 1.02 0.94 1.00 1.09 1.13 1.14 1.23 1.31 1.30 1.30 1.31 1.41 1.49 1.65 1.77 1.62 1.33 1.28 1.33 1.40 1.35 1.19 0.98 0.82 0.77 0.67
1.09 1.18 1.25 1.29 1.30 1.24 1.11 1.03 1.07 1.13 1.19 1.22 1.22 1.20 1.11 1.10 1.20 1.20 1.14 1.19 1.23 1.20 1.18 1.21 1.17 1.19 1.28 1.26 1.33 1.36 1.47 1.67 1.61 1.50 1.49 1.51 1.55 1.49 1.41 1.20 0.94 0.82 0.77
1.30 1.50 1.68 1.71 1.55 1.40 1.32 1.21 1.21 1.25 1.30 1.32 1.35 1.39 1.38 1.36 1.33 1.34 1.40 1.36 1.23 1.13 1.15 1.14 1.11 1.15 1.17 1.23 1.29 1.22 1.23 1.34 1.50 1.55 1.59 1.67 1.72 1.61 1.46 1.30 1.14 1.05 0.83
1.10 1.37 1.56 1.66 1.55 1.49 1.45 1.33 1.27 1.29 1.33 1.34 1.39 1.55 1.66 1.66 1.63 1.54 1.47 1.38 1.26 1.16 1.10 1.04 1.03 1.07 1.10 1.15 1.20 1.21 1.20 1.30 1.44 1.50 1.61 1.81 1.83 1.86 1.77 1.53 1.40 1.32 1.06
0.88 1.03 1.23 1.45 1.35 1.21 1.18 1.15 1.12 1.18 1.30 1.52 1.64 1.70 1.87 1.94 1.80 1.76 1.64 1.54 1.50 1.34 1.18 1.06 0.98 0.96 1.00 1.04 0.99 1.05 1.13 1.21 1.24 1.32 1.43 1.66 1.76 1.88 1.83 1.63 1.48 1.47 1.31
0.91 1.01 1.16 1.26 1.17 1.02 0.91 0.91 0.97 1.05 1.18 1.34 1.49 1.55 1.56 1.45 1.55 1.52 1.43 1.42 1.44 1.32 1.24 1.17 1.03 0.92 0.90 0.86 0.81 0.84 0.90 0.95 1.04 1.18 1.22 1.40 1.61 1.71 1.84 1.90 1.75 1.61 1.53
1.07 1.09 1.15 1.21 1.18 1.09 0.92 0.89 0.92 0.98 1.10 1.20 1.26 1.32 1.29 1.31 1.27 1.12 1.09 1.09 1.16 1.16 1.19 1.18 0.98 0.84 0.88 0.82 0.82 0.77 0.74 0.77 0.84 1.02 1.13 1.18 1.41 1.62 1.82 1.98 1.98 1.92 1.78
1.06 1.12 1.27 1.37 1.32 1.24 1.16 1.12 1.13 1.15 1.16 1.17 1.19 1.21 1.28 1.24 1.15 0.98 0.96 0.93 1.01 1.06 1.12 1.15 1.12 1.03 1.01 1.04 0.99 0.89 0.79 0.77 0.81 0.83 0.88 1.03 1.31 1.67 1.87 1.92 2.05 2.07 1.99
1.18 1.26 1.34 1.47 1.49 1.46 1.48 1.50 1.47 1.42 1.30 1.26 1.29 1.32 1.32 1.31 1.21 1.00 0.96 0.92 1.01 1.09 1.13 1.15 1.15 1.09 1.10 1.01 0.97 0.94 0.92 0.91 0.84 0.83 0.83 0.91 1.06 1.31 1.67 1.80 1.85 1.80 1.72
1.33 1.46 1.50 1.66 1.75 1.68 1.70 1.76 1.76 1.78 1.70 1.64 1.53 1.46 1.42 1.35 1.26 1.00 0.96 0.94 1.01 1.08 1.16 1.14 1.06 0.95 0.90 0.84 0.85 0.94 0.90 0.88 0.94 0.90 0.84 0.78 0.77 0.91 1.20 1.42 1.50 1.50 1.38
1.35 1.48 1.60 1.78 1.91 2.00 2.13 2.19 2.13 2.06 2.01 1.89 1.70 1.60 1.60 1.58 1.45 1.08 0.94 0.93 0.99 1.12 1.15 1.14 1.05 0.95 0.81 0.78 0.79 0.85 0.87 0.86 0.94 0.96 0.91 0.88 0.88 0.90 0.97 1.13 1.32 1.40 1.32
1.30 1.47 1.71 1.89 1.92 1.96 2.22 2.31 2.27 2.17 2.04 1.91 1.78 1.63 1.56 1.52 1.36 1.12 0.94 0.95 1.05 1.16 1.18 1.16 1.15 0.99 0.82 0.77 0.73 0.72 0.75 0.72 0.75 0.85 0.83 0.79 0.79 0.80 0.84 0.98 1.17 1.30 1.37
1.38 1.53 1.76 1.94 2.08 2.18 2.24 2.22 2.20 2.17 2.08 1.93 1.82 1.69 1.66 1.72 1.61 1.24 1.06 1.04 1.08 1.08 1.09 1.11 1.05 0.93 0.78 0.69 0.71 0.70 0.65 0.63 0.71 0.79 0.80 0.72 0.68 0.72 0.83 0.98 1.12 1.25 1.30
1.29 1.37 1.53 1.66 1.73 1.85 2.01 1.98 1.89 1.90 1.93 1.90 1.82 1.73 1.68 1.70 1.66 1.42 1.21 1.18 1.17 1.15 1.09 1.06 0.96 0.92 0.81 0.75 0.76 0.70 0.64 0.70 0.79 0.81 0.83 0.84 0.81 0.84 0.87 0.93 1.03 1.12 1.19
1.15 1.17 1.26 1.36 1.47 1.59 1.67 1.74 1.70 1.66 1.58 1.61 1.62 1.63 1.56 1.53 1.55 1.42 1.30 1.35 1.40 1.39 1.33 1.27 1.17 1.09 0.97 0.88 0.88 0.90 0.90 0.96 0.93 0.92 0.96 1.01 0.99 0.93 0.90 0.94 1.07 1.11 1.06
1.20 1.16 1.16 1.20 1.28 1.34 1.44 1.44 1.38 1.26 1.17 1.12 1.09 1.11 1.10 1.13 1.22 1.16 1.09 1.16 1.23 1.29 1.25 1.21 1.18 1.12 1.04 1.04 1.07 1.09 1.07 1.08 1.05 1.05 1.07 1.10 1.11 1.03 0.95 0.95 1.05 1.10 1.04
1.31 1.24 1.20 1.13 1.16 1.24 1.32 1.37 1.36 1.19 1.02 0.89 0.81 0.77 0.77 0.83 0.92 0.94 0.96 1.04 1.14 1.22 1.22 1.22 1.20 1.18 1.12 1.10 1.11 1.12 1.09 1.09 1.13 1.14 1.15 1.16 1.20 1.20 1.16 1.10 1.08 1.12 1.10
1.33 1.27 1.20 1.15 1.10 1.14 1.18 1.20 1.27 1.33 1.24 1.05 0.85 0.70 0.64 0.64 0.69 0.78 0.88 1.00 1.13 1.16 1.16 1.20 1.18 1.16 1.14 1.11 1.08 1.10 1.11 1.14 1.14 1.13 1.16 1.19 1.25 1.26 1.27 1.19 1.12 1.09 1.11
1.13 1.09 1.05 1.06 1.08 1.07 1.10 1.12 1.12 1.19 1.20 1.14 1.01 0.83 0.71 0.64 0.64 0.73 0.78 0.86 1.04 1.10 1.10 1.08 1.04 0.99 0.98 0.99 0.99 0.98 0.98 0.99 1.01 1.08 1.08 1.09 1.14 1.14 1.10 1.07 1.08 1.08 1.08
1.07 1.02 0.97 0.98 1.02 1.04 1.06 1.08 1.06 1.12 1.14 1.14 1.04 0.87 0.74 0.63 0.64 0.69 0.73 0.86 1.04 1.06 1.02 0.96 0.94 0.89 0.89 0.91 0.93 0.91 0.91 0.93 0.98 1.07 1.08 1.06 1.08 1.06 1.01 1.01 1.06 1.09 1.07
1.06 0.96 0.84 0.82 0.86 0.93 0.98 0.99 0.97 1.00 1.01 1.03 0.94 0.74 0.62 0.58 0.64 0.72 0.81 0.93 1.03 0.98 0.93 0.90 0.88 0.83 0.81 0.82 0.83 0.85 0.89 0.95 0.98 1.04 1.08 1.10 1.12 1.09 1.03 1.03 1.07 1.12 1.13
1.09 1.00 0.86 0.75 0.73 0.79 0.84 0.89 0.91 0.91 0.91 0.91 0.83 0.62 0.52 0.50 0.57 0.66 0.74 0.84 0.89 0.89 0.87 0.86 0.82 0.76 0.75 0.77 0.80 0.87 0.91 0.93 0.98 1.05 1.07 1.10 1.15 1.11 1.09 1.09 1.08 1.12 1.18
1.01 0.94 0.83 0.67 0.64 0.69 0.76 0.85 0.85 0.80 0.82 0.81 0.73 0.60 0.54 0.56 0.58 0.65 0.73 0.76 0.79 0.83 0.82 0.78 0.72 0.69 0.69 0.71 0.74 0.81 0.88 0.93 0.94 0.98 1.02 1.05 1.10 1.10 1.13 1.11 1.08 1.12 1.15
0.86 0.85 0.81 0.63 0.58 0.71 0.79 0.84 0.81 0.74 0.75 0.73 0.63 0.59 0.56 0.60 0.62 0.64 0.67 0.70 0.73 0.73 0.73 0.71 0.64 0.60 0.60 0.64 0.69 0.71 0.74 0.77 0.78 0.84 0.87 0.93 0.99 1.03 1.06 1.06 1.05 1.07 1.12
0.77 0.77 0.80 0.69 0.60 0.68 0.76 0.80 0.76 0.70 0.66 0.60 0.54 0.56 0.57 0.56 0.59 0.63 0.66 0.72 0.72 0.69 0.65 0.62 0.63 0.64 0.63 0.64 0.67 0.69 0.70 0.64 0.62 0.65 0.71 0.79 0.84 0.91 0.94 0.92 0.95 1.02 1.08
0.72 0.71 0.75 0.72 0.66 0.67 0.73 0.76 0.74 0.65 0.59 0.54 0.52 0.54 0.57 0.57 0.59 0.61 0.62 0.64 0.66 0.68 0.66 0.65 0.63 0.61 0.61 0.60 0.56 0.56 0.52 0.47 0.46 0.52 0.58 0.65 0.73 0.81 0.84 0.84 0.83 0.90 0.98